[[{"header":{"parameterUnit":"m.s-1","parameterCategory":1,"la1":30.2991,"la2":30.254,"lo1":-89.0895,"lo2":-89.0444,"dy":0.0017,"dx":0.0017,"nx":28,"ny":28,"refTime":"2025-07-12T21:00:00:Z","depth":0,"parameterNumber":2,"parameterNumberName":"U-component_of_WINDS"},"data":[0,0,0,0,0,0,0,0,0,0,0,0,0,0,0,0,0,0,0,0,0,0,0,0,0,0,0,0,0,0,0,0,0,0,0,0,0,0,0,0,0,0,0,0,0,0,0,0,0,0,0,0,0,0,0,0,0,0,1.8662,1.8663,0,1.8728,1.8729,1.873,1.8736,1.8735,1.8735,1.8734,1.8801,1.8804,1.8806,0,0,0,0,0,0,0,0,0,0,0,0,0,1.8543,1.8546,1.8662,1.8663,1.8664,1.8728,1.8729,1.873,1.8736,1.8735,1.8734,1.8734,1.8801,1.8804,1.8806,0,0,0,0,0,0,0,0,0,0,0,0,0,1.8601,1.8546,1.8662,1.8675,1.8677,1.8728,1.8729,1.873,1.8736,1.8735,1.8734,1.8733,1.88,1.8803,1.8807,1.885,0,0,1.8818,1.882,0,0,0,0,0,0,0,0,1.8597,1.8605,1.8672,1.8674,1.8676,1.8723,1.8712,1.877,1.8737,1.8714,1.8734,1.8733,1.8776,1.8782,1.8796,1.8853,1.8856,1.8818,1.8821,1.8822,1.8823,0,0,0,0,0,0,0,1.8594,1.8602,1.8688,1.8673,1.8676,1.8678,1.8685,1.8723,1.875,1.8716,1.8716,1.8724,1.8777,1.8793,1.8798,1.8857,1.8818,1.8822,1.8824,1.8825,1.8956,1.8957,0,0,0,0,0,0,1.8587,1.8599,1.8686,1.869,1.8633,1.8681,1.8689,1.8709,1.8749,1.8755,1.8725,1.8724,1.8787,1.8794,1.88,1.8855,1.8822,1.8826,1.8828,1.8955,1.8956,1.8958,0,0,0,0,0,0,1.8584,1.8595,1.8684,1.8645,1.8656,1.8684,1.8707,1.8711,1.8726,1.8756,1.8761,1.8736,1.8786,1.8795,1.8838,1.8858,1.8827,1.8831,1.8953,1.8955,1.8957,1.8965,0,0,0,0,0,0,1.8581,1.8594,1.861,1.8645,1.8658,1.872,1.8708,1.8713,1.8733,1.8732,1.8768,1.8773,1.8786,1.8833,1.8842,1.8862,1.8833,1.8952,1.8954,1.8956,1.8963,1.8967,1.897,0,0,0,0,0,1.8577,1.8609,1.8611,1.8621,1.8679,1.8721,1.8729,1.8743,1.8734,1.8751,1.8771,1.8772,1.8854,1.8837,1.8848,1.8869,1.895,1.8953,1.8956,1.8961,1.8966,1.897,0,0,0,0,0,0,1.8575,1.8614,1.8616,1.8661,1.8688,1.8722,1.8744,1.8747,1.8777,1.8776,1.8793,1.8801,1.8844,1.8861,1.8841,1.8915,1.8901,1.8907,1.8902,1.8906,1.891,1.8905,1.8836,0,0,0,0,0,1.8579,1.861,1.8643,1.8679,1.8692,1.8716,1.8734,1.8744,1.8772,1.8784,1.8806,1.8834,1.8867,1.8887,1.8919,1.8966,1.8974,1.8986,1.8989,1.8992,1.8996,1.9024,1.903,1.8967,1.8967,1.8967,0,0,1.8589,1.8615,1.8633,1.8679,1.8701,1.8733,1.8725,1.8759,1.8783,1.8789,1.8831,1.8849,1.8882,1.8927,1.8948,1.8943,1.9016,1.8996,1.8998,1.9,1.9028,1.9034,1.9039,1.8969,1.8969,1.8968,0,0,1.8624,1.8646,1.8679,1.8702,1.8736,1.8751,1.876,1.8794,1.8806,1.885,1.8855,1.8885,1.8939,1.8963,1.8982,1.9029,1.9031,1.9038,1.9057,1.9084,1.9089,1.9093,1.9111,1.9117,1.9042,1.9042,1.9042,0,1.8632,1.868,1.8696,1.873,1.8751,1.8759,1.8793,1.8815,1.8857,1.8871,1.8864,1.8935,1.8957,1.901,1.9021,1.9036,1.9047,1.9034,1.9087,1.9091,1.9096,1.9113,1.912,1.9043,1.9043,1.9043,1.9043,0,1.8689,1.8723,1.8746,1.8787,1.8811,1.8845,1.8867,1.8889,1.8897,1.8914,1.8959,1.8986,1.9024,1.9037,1.9044,1.9091,1.9087,1.9083,1.907,1.9102,1.9119,1.9126,1.9044,1.9044,1.9044,1.9044,0,0,1.8723,1.8775,1.8783,1.8803,1.8841,1.8868,1.8903,1.8941,1.896,1.899,1.9021,1.9068,1.9066,1.9088,1.9098,1.9122,1.9159,1.9116,1.9117,1.9123,1.9214,1.9217,1.9224,1.9161,1.9162,1.9163,1.9211,0,1.8763,1.8826,1.8842,1.8896,1.8928,1.8937,1.8968,1.8996,1.9014,1.9044,1.9063,1.9097,1.909,1.9104,1.9128,1.9149,1.9177,1.9146,1.9191,1.9192,1.9183,1.9232,1.9235,1.9279,1.9218,1.9219,1.922,0,1.8817,1.8849,1.8906,1.8943,1.8957,1.8985,1.9022,1.905,1.9083,1.9094,1.9119,1.9128,1.9167,1.9152,1.9206,1.9185,1.9204,1.9218,1.922,1.9225,1.9208,1.9239,1.9293,1.93,1.923,1.9229,1.9228,0,1.8838,1.8895,1.8937,1.8953,1.8997,1.9017,1.9036,1.9067,1.9089,1.9122,1.9137,1.9173,1.9193,1.9222,1.9241,1.9228,1.9294,1.9281,1.9305,1.9305,1.9318,1.9317,1.9377,1.933,1.933,1.933,1.933,0,1.8881,1.8916,1.8947,1.8973,1.9013,1.9032,1.9071,1.9091,1.9119,1.915,1.916,1.9189,1.9212,1.9244,1.9259,1.9303,1.9311,1.9322,1.9326,1.9321,1.932,1.9334,1.9332,1.9332,1.9331,1.9331,1.9331,0,1.891,1.8932,1.8979,1.9017,1.9028,1.9056,1.9089,1.9115,1.9133,1.9172,1.9182,1.9211,1.925,1.9272,1.932,1.9331,1.9379,1.9381,1.9369,1.937,1.9394,1.9392,1.9465,1.9476,1.9421,1.9422,1.9422,0,1.8936,1.8963,1.9005,1.9026,1.9046,1.908,1.9104,1.9124,1.9148,1.9188,1.921,1.925,1.9282,1.9344,1.937,1.9407,1.9411,1.9434,1.9416,1.9412,1.9412,1.9411,1.9414,1.9437,1.9437,1.9438,1.9438,0,1.898,1.899,1.9023,1.9061,1.9089,1.9119,1.915,1.9167,1.9193,1.9219,1.9259,1.9285,1.9335,1.9375,1.9415,1.9436,1.9442,1.9443,1.9451,1.9447,1.9439,1.9445,1.9377,1.9442,1.9441,1.9441,1.9441,1.9441,1.9009,1.9035,1.9069,1.9106,1.9131,1.916,1.9187,1.9209,1.9243,1.9286,1.9296,1.9339,1.9373,1.9428,1.9449,1.9484,1.9479,1.949,1.9493,1.9496,1.9497,1.9434,1.9491,1.9491,1.9491,1.9491,1.9491,0,1.9055,1.9078,1.9112,1.9155,1.9184,1.9188,1.9222,1.9247,1.9284,1.9316,1.9348,1.9395,1.9434,1.9464,1.9504,1.9526,1.953,1.9536,1.9535,1.954,1.9498,1.9488,1.9532,1.9532,1.9532,1.9532,1.9532,1.9532,1.9082,1.9126,1.9141,1.9198,1.9221,1.9263,1.9282,1.9309,1.9335,1.9387,1.9419,1.9439,1.947,1.9513,1.9549,1.9557,1.9572,1.9578,1.9586,1.9547,1.9542,1.9538,1.9528,1.9581,1.9581,1.9625,1.9625,1.9626]},{"header":{"parameterUnit":"m.s-1","parameterCategory":1,"la1":30.2991,"la2":30.254,"lo1":-89.0895,"lo2":-89.0444,"dy":0.0017,"dx":0.0017,"nx":28,"ny":28,"refTime":"2025-07-12T21:00:00:Z","depth":0,"parameterNumber":3,"parameterNumberName":"V-component_of_WINDS"},"data":[0,0,0,0,0,0,0,0,0,0,0,0,0,0,0,0,0,0,0,0,0,0,0,0,0,0,0,0,0,0,0,0,0,0,0,0,0,0,0,0,0,0,0,0,0,0,0,0,0,0,0,0,0,0,0,0,0,0,-1.8097,-1.8098,0,-1.8154,-1.8155,-1.8155,-1.8186,-1.8186,-1.8186,-1.8186,-1.8242,-1.8244,-1.8245,0,0,0,0,0,0,0,0,0,0,0,0,0,-1.8014,-1.8016,-1.8097,-1.8098,-1.8098,-1.8154,-1.8155,-1.8155,-1.8186,-1.8186,-1.8186,-1.8186,-1.8242,-1.8243,-1.8245,0,0,0,0,0,0,0,0,0,0,0,0,0,-1.8058,-1.8016,-1.8097,-1.812,-1.8123,-1.8154,-1.8155,-1.8156,-1.8186,-1.8186,-1.8186,-1.8186,-1.8241,-1.8243,-1.8245,-1.8256,0,0,-1.8252,-1.8253,0,0,0,0,0,0,0,0,-1.8056,-1.8061,-1.8116,-1.8119,-1.8122,-1.8163,-1.8146,-1.8189,-1.8186,-1.8162,-1.8186,-1.8186,-1.8216,-1.822,-1.823,-1.8259,-1.8261,-1.8252,-1.8253,-1.8254,-1.8255,0,0,0,0,0,0,0,-1.8053,-1.8059,-1.8119,-1.8117,-1.812,-1.8128,-1.8134,-1.8154,-1.8187,-1.8164,-1.8166,-1.8173,-1.8217,-1.8228,-1.8232,-1.8262,-1.8252,-1.8254,-1.8255,-1.8256,-1.8306,-1.8306,0,0,0,0,0,0,-1.8046,-1.8056,-1.8118,-1.8121,-1.8089,-1.8129,-1.8136,-1.8149,-1.8187,-1.8193,-1.8173,-1.8174,-1.8224,-1.8229,-1.8234,-1.8251,-1.8254,-1.8256,-1.8257,-1.8306,-1.8306,-1.8306,0,0,0,0,0,0,-1.8044,-1.8051,-1.8115,-1.809,-1.8098,-1.8131,-1.8145,-1.8151,-1.8162,-1.8194,-1.82,-1.8178,-1.8225,-1.8231,-1.8251,-1.8253,-1.8257,-1.8259,-1.8306,-1.8306,-1.8306,-1.8285,0,0,0,0,0,0,-1.8042,-1.805,-1.8055,-1.8089,-1.8099,-1.8132,-1.8145,-1.8152,-1.8165,-1.8168,-1.82,-1.8206,-1.8225,-1.8248,-1.8253,-1.8256,-1.8261,-1.8306,-1.8306,-1.8306,-1.8285,-1.8284,-1.8283,0,0,0,0,0,-1.8039,-1.8046,-1.8055,-1.8062,-1.8106,-1.8132,-1.8138,-1.8161,-1.8165,-1.817,-1.8192,-1.8205,-1.8252,-1.825,-1.8256,-1.826,-1.8306,-1.8306,-1.8306,-1.8286,-1.8284,-1.8283,0,0,0,0,0,0,-1.8009,-1.805,-1.8061,-1.8079,-1.8102,-1.8137,-1.8144,-1.8158,-1.8179,-1.818,-1.8207,-1.8214,-1.8232,-1.8248,-1.8245,-1.8274,-1.828,-1.8282,-1.8263,-1.8262,-1.826,-1.8256,-1.8263,0,0,0,0,0,-1.8005,-1.8023,-1.8058,-1.8071,-1.8082,-1.8111,-1.8123,-1.8139,-1.8163,-1.8172,-1.8195,-1.8217,-1.8238,-1.8251,-1.8271,-1.8288,-1.8296,-1.8294,-1.8292,-1.8291,-1.8292,-1.8304,-1.8304,-1.8306,-1.8306,-1.8306,0,0,-1.7996,-1.8021,-1.803,-1.8065,-1.8085,-1.8103,-1.8118,-1.8136,-1.8151,-1.8175,-1.8197,-1.8214,-1.8241,-1.826,-1.827,-1.8274,-1.8294,-1.8291,-1.829,-1.8292,-1.8304,-1.8304,-1.8304,-1.8306,-1.8306,-1.8306,0,0,-1.7989,-1.8009,-1.8023,-1.8043,-1.8073,-1.8093,-1.8096,-1.8129,-1.8142,-1.8165,-1.8184,-1.8201,-1.8235,-1.8254,-1.8268,-1.8272,-1.8285,-1.8278,-1.8271,-1.8283,-1.8283,-1.8283,-1.8285,-1.8286,-1.8278,-1.8278,-1.8278,0,-1.7974,-1.8003,-1.8028,-1.8047,-1.8062,-1.8087,-1.8101,-1.8119,-1.8153,-1.8164,-1.8168,-1.8213,-1.8233,-1.8258,-1.8259,-1.8269,-1.8275,-1.8274,-1.8281,-1.8281,-1.8281,-1.8284,-1.8285,-1.8277,-1.8277,-1.8278,-1.8278,0,-1.7984,-1.8004,-1.8011,-1.8046,-1.8062,-1.8078,-1.8107,-1.812,-1.8135,-1.8155,-1.8178,-1.8203,-1.823,-1.8237,-1.8251,-1.8265,-1.8267,-1.8275,-1.8283,-1.828,-1.8283,-1.8284,-1.8276,-1.8276,-1.8277,-1.8277,0,0,-1.7959,-1.8009,-1.8012,-1.8029,-1.8064,-1.808,-1.8098,-1.8126,-1.8138,-1.8161,-1.8177,-1.8207,-1.8216,-1.8232,-1.8249,-1.8259,-1.8262,-1.8266,-1.8268,-1.8266,-1.8281,-1.8275,-1.8276,-1.8271,-1.8272,-1.8272,-1.8279,0,-1.7958,-1.7992,-1.8017,-1.8042,-1.8061,-1.8086,-1.8102,-1.8126,-1.8145,-1.8164,-1.8185,-1.8206,-1.8216,-1.8226,-1.8237,-1.8259,-1.8266,-1.8259,-1.8287,-1.8288,-1.8281,-1.8277,-1.827,-1.8276,-1.8281,-1.8281,-1.8281,0,-1.7962,-1.7986,-1.8013,-1.805,-1.8059,-1.8072,-1.8101,-1.8119,-1.8147,-1.816,-1.818,-1.8198,-1.8218,-1.8224,-1.8253,-1.8248,-1.8262,-1.8275,-1.8275,-1.8279,-1.8285,-1.8282,-1.8278,-1.828,-1.8283,-1.8283,-1.8283,0,-1.7943,-1.7982,-1.8004,-1.8018,-1.806,-1.807,-1.8087,-1.8116,-1.8132,-1.8156,-1.8167,-1.8193,-1.8208,-1.8228,-1.8253,-1.8254,-1.8281,-1.8288,-1.8293,-1.8292,-1.8297,-1.8297,-1.8297,-1.8304,-1.8304,-1.8304,-1.8304,0,-1.794,-1.7956,-1.7997,-1.801,-1.8029,-1.8058,-1.8076,-1.8096,-1.8121,-1.814,-1.8162,-1.8178,-1.821,-1.823,-1.825,-1.8273,-1.8278,-1.829,-1.8295,-1.8289,-1.8288,-1.8298,-1.8299,-1.8305,-1.8305,-1.8305,-1.8304,0,-1.7922,-1.795,-1.7976,-1.8014,-1.8024,-1.8037,-1.807,-1.8084,-1.8106,-1.8129,-1.8136,-1.8168,-1.8194,-1.8221,-1.8255,-1.8269,-1.8291,-1.8297,-1.8282,-1.8285,-1.8289,-1.8289,-1.8296,-1.83,-1.8304,-1.8304,-1.8304,0,-1.7918,-1.7932,-1.7973,-1.7987,-1.8005,-1.8027,-1.8044,-1.8073,-1.809,-1.8124,-1.8135,-1.8163,-1.8186,-1.8226,-1.8253,-1.828,-1.8288,-1.8289,-1.8292,-1.8286,-1.829,-1.8289,-1.8291,-1.8288,-1.8288,-1.8288,-1.8287,0,-1.791,-1.7924,-1.7948,-1.7977,-1.7997,-1.8021,-1.8046,-1.8057,-1.8091,-1.8108,-1.8136,-1.8154,-1.8191,-1.8218,-1.8249,-1.8268,-1.8284,-1.8286,-1.8289,-1.8283,-1.8274,-1.8281,-1.828,-1.8286,-1.8286,-1.8286,-1.8286,-1.8286,-1.79,-1.7914,-1.7946,-1.7972,-1.7995,-1.8018,-1.8034,-1.8058,-1.8082,-1.8115,-1.813,-1.8158,-1.8188,-1.8231,-1.8249,-1.8272,-1.8276,-1.828,-1.8281,-1.8282,-1.8281,-1.827,-1.8277,-1.8277,-1.8277,-1.8277,-1.8277,0,-1.7895,-1.7917,-1.7941,-1.7976,-1.7997,-1.8012,-1.8041,-1.8057,-1.8082,-1.8109,-1.8132,-1.8165,-1.8192,-1.8222,-1.8252,-1.8264,-1.8272,-1.8271,-1.8271,-1.8275,-1.8274,-1.827,-1.8264,-1.8264,-1.8264,-1.8264,-1.8264,-1.8264,-1.7894,-1.7919,-1.7937,-1.7973,-1.7995,-1.8024,-1.8039,-1.8061,-1.8083,-1.8119,-1.8143,-1.8162,-1.8191,-1.8223,-1.8249,-1.8258,-1.8268,-1.8265,-1.8275,-1.8274,-1.8275,-1.8276,-1.8272,-1.8266,-1.8266,-1.8274,-1.8274,-1.8274]}]]